Location: Dzierzno
(50.6159°N, 19.2852°E)
Time: 06:11:46
(UTC+00:00)

COSMOS 2406 - Pass Details

Date: 18 November 2025
Orbit: 845 x 859 km, 71.0° (Epoch: 10 December)

Event Time Altitude Azimuth Distance (km) Brightness Sun altitude
Rises 16:22:55 0° 331° (NNW) 3,418 6.6 -14.1°
Reaches altitude 10° 16:25:27 10° 337° (NNW) 2,480 5.8 -14.5°
Maximum altitude 16:31:01 52° 54° (NE) 1,047 3.3 -15.3°
Drops below altitude 10° 16:36:33 10° 130° (SE) 2,472 5.3 -16.2°
Enters shadow 16:36:52 - 131° (SE) 2,591 5.4 -16.2°
